Find Starlink 30587

NORAD ID: 58064 Int'l Des: 2023-158 Owner: SPXS Country: US Constellation: starlink operational
LEOCIRCULAR

Live Position

Loading 3D Globe...

About Starlink 30587

Description loading...

Upcoming Passes

Passes for default location (London). Set your location on the main map for personalized predictions.

Altitude History

Loading altitude history...

Two-Line Element Set

1 58064U 23158P 26132.96821977 .00000198 00000-0 16712-4 0 9994
2 58064 43.0028 23.7734 0001370 262.6196 97.4500 15.27581044143405
Epoch: May 12, 2026 • Age: 14 hours

Current Status

Altitude 483.8 km
Velocity 7.63 km/s
Sub-Earth Point 26.63°N, 21.67°W
Launch Date Oct 13, 2023
Age 2.5 years
Type internet

Technical Details

Classification Payload
Mass 730.00 kg
Dry Mass 700.00 kg
Total Mass 730.00 kg
Length 0.30 m
Diameter 4.10 m
Span 29.00 m
Shape Box + pan
Manufacturer SPXS
Bus Type Starlink V2M
Phase Status In Orbit
Owner/State SPXS/US

Most Searched